Montrose, CO

5:05 AM MDT on September 26, 2017 (GMT -0600)
Montrose Regional

Weather History for KMTJ - October, 2011

Change the Weather History Date:

Thursday, October 6, 2011

  Actual Average Record
Temperature  
Mean Temperature 46 °F 54 °F  
Max Temperature 55 °F 69 °F 81 °F (1997)
Min Temperature 36 °F 39 °F 28 °F (1998)
Degree Days  
Heating Degree Days 19 11  
Month to date heating degree days 60  
Since 1 July heating degree days 187  
Cooling Degree Days 0 0  
Month to date cooling degree days 0  
Year to date cooling degree days 643  
Moisture  
Dew Point 36 °F    
Average Humidity 70    
Maximum Humidity 86    
Minimum Humidity 39    
Precipitation  
Precipitation 0.09 in 0.05 in 0.35 in (2006)
Month to date precipitation 0.35  
Year to date precipitation 9.00  
Sea Level Pressure  
Sea Level Pressure 29.66 in    
Wind  
Wind Speed 9 mph (South)    
Max Wind Speed 22 mph    
Max Gust Speed 33 mph    
Visibility 10 miles    
Events Rain    
T = Trace of Precipitation, MM = Missing Value Source: NWS Daily Summary

Daily Weather History Graph

Daily Weather History Graph

Search for Another Location

Airport or City:

Trip Planner

Search our weather history database for the weather conditions in past years. The results will help you decide how hot, cold, wet, or windy it might be!

Date:

Astronomy

Oct. 06, 2011 Rise Set
Actual Time 7:11 AM MDT 6:46 PM MDT
Civil Twilight 6:45 AM MDT 7:13 PM MDT
Nautical Twilight 6:14 AM MDT 7:44 PM MDT
Astronomical Twilight 5:43 AM MDT 8:14 PM MDT
Moon 3:58 PM MDT (10/6) 2:06 AM MDT (10/6)
Length of Visible Light 12h 28m
Length of Day
11h 35m
Waxing Gibbous, 76% of the Moon is Illuminated
Oct 6
Waxing Gibbous
Oct 11
Full
Oct 19
Last Quarter
Oct 26
New
Nov 2
First Quarter

Hourly Weather History & Observations

Time (MDT) Temp. Windchill Dew Point Humidity Pressure Visibility Wind Dir Wind Speed Gust Speed Precip Events Conditions
12:53 AM 52.0 °F - 45.0 °F 77% 29.54 in 10.0 mi SSE 4.6 mph - 0.00 in Rain Light Rain
1:53 AM 55.0 °F - 43.0 °F 64% 29.52 in 10.0 mi Calm Calm - 0.00 in   Overcast
2:53 AM 52.0 °F - 42.1 °F 69% 29.55 in 10.0 mi SSW 10.4 mph - 0.01 in   Overcast
3:53 AM 51.1 °F - 43.0 °F 74% 29.52 in 10.0 mi SE 9.2 mph - 0.00 in Rain Light Rain
4:53 AM 50.0 °F - 44.1 °F 80% 29.52 in 10.0 mi SSE 9.2 mph - 0.00 in Rain Light Rain
5:53 AM 51.1 °F - 41.0 °F 68% 29.50 in 10.0 mi SSE 12.7 mph - 0.01 in   Overcast
6:53 AM 50.0 °F - 42.1 °F 74% 29.46 in 10.0 mi SSW 4.6 mph - 0.00 in Rain Light Rain
7:53 AM 48.9 °F - 43.0 °F 80% 29.45 in 10.0 mi Calm Calm - 0.00 in Rain Light Rain
8:48 AM 46.4 °F 39.5 °F 39.2 °F 76% 29.62 in 4.0 mi SW 17.3 mph 27.6 mph 0.02 in Rain Rain
9:00 AM 46.4 °F 39.0 °F 39.2 °F 76% 29.63 in 6.0 mi SW 19.6 mph 28.8 mph 0.01 in Rain Light Rain
9:53 AM 44.1 °F 38.6 °F 39.0 °F 82% 29.52 in 10.0 mi South 10.4 mph 21.9 mph 0.06 in Rain Light Rain
10:26 AM 42.8 °F 36.6 °F 35.6 °F 76% 29.70 in 10.0 mi West 11.5 mph - 0.00 in   Overcast
10:53 AM 42.1 °F - 35.1 °F 76% 29.62 in 10.0 mi Calm Calm - 0.00 in Rain Light Rain
11:53 AM 42.1 °F 37.1 °F 33.1 °F 70% 29.64 in 10.0 mi ESE 8.1 mph 23.0 mph 0.00 in   Overcast
12:46 PM 46.4 °F 39.2 °F 33.8 °F 62% 29.75 in 10.0 mi SSE 18.4 mph 28.8 mph N/A   Mostly Cloudy
12:53 PM 46.0 °F 38.5 °F 32.0 °F 58% 29.62 in 10.0 mi SSE 19.6 mph 26.5 mph N/A   Mostly Cloudy
1:53 PM 50.0 °F - 28.9 °F 44% 29.60 in 10.0 mi SSW 17.3 mph 26.5 mph N/A   Clear
2:53 PM 51.1 °F - 28.9 °F 43% 29.63 in 10.0 mi SW 21.9 mph 33.4 mph 0.01 in   Clear
3:53 PM 50.0 °F - 26.1 °F 39% 29.64 in 10.0 mi WSW 16.1 mph 25.3 mph N/A   Clear
4:53 PM 50.0 °F - 28.9 °F 44% 29.67 in 10.0 mi SSW 16.1 mph - N/A   Scattered Clouds
5:20 PM 42.8 °F 35.4 °F 32.0 °F 66% 29.84 in 10.0 mi NW 15.0 mph 27.6 mph N/A   Mostly Cloudy
5:53 PM 39.9 °F 35.8 °F 34.0 °F 79% 29.76 in 10.0 mi NE 5.8 mph - 0.00 in   Overcast
6:53 PM 42.1 °F 40.2 °F 32.0 °F 67% 29.79 in 10.0 mi ENE 3.5 mph - 0.00 in Rain Light Rain
7:53 PM 39.0 °F 32.8 °F 33.1 °F 79% 29.83 in 10.0 mi ESE 9.2 mph - 0.00 in   Partly Cloudy
8:53 PM 39.0 °F 34.0 °F 34.0 °F 82% 29.86 in 10.0 mi South 6.9 mph - N/A   Mostly Cloudy
9:53 PM 37.9 °F 29.6 °F 33.1 °F 83% 29.88 in 10.0 mi SE 13.8 mph - 0.00 in   Clear
10:53 PM 37.9 °F 33.5 °F 33.1 °F 83% 29.90 in 10.0 mi SSE 5.8 mph - N/A   Scattered Clouds
11:53 PM 36.0 °F 31.1 °F 32.0 °F 86% 29.91 in 10.0 mi SSE 5.8 mph - N/A   Partly Cloudy